2023/08/06 00:00:00, 0.0,24.7
2023/08/06 00:10:00, 0.0,24.5
2023/08/06 00:20:00, 0.0,24.5
2023/08/06 00:30:00, 0.0,24.6
2023/08/06 00:40:00, 0.0,24.6
2023/08/06 00:50:00, 0.0,24.3
2023/08/06 01:00:00, 0.0,24.3
2023/08/06 01:10:00, 0.0,24.3
2023/08/06 01:20:00, 0.0,24.3
2023/08/06 01:30:00, 0.0,24.2
2023/08/06 01:40:00, 0.0,24.1
2023/08/06 01:50:00, 0.0,24.2
2023/08/06 02:00:00, 0.0,24.3
2023/08/06 02:10:00, 0.0,24.0
2023/08/06 02:20:00, 0.0,24.2
2023/08/06 02:30:00, 0.0,24.0
2023/08/06 02:40:00, 0.0,24.1
2023/08/06 02:50:00, 0.0,24.0
2023/08/06 03:00:00, 0.0,24.2
2023/08/06 03:10:00, 0.0,24.3
2023/08/06 03:20:00, 0.0,24.0
2023/08/06 03:30:00, 0.0,24.0
2023/08/06 03:40:00, 0.0,24.0
2023/08/06 03:50:00, 0.0,24.0
2023/08/06 04:00:00, 0.0,23.9
2023/08/06 04:10:00, 0.0,23.7
2023/08/06 04:20:00, 0.0,23.9
2023/08/06 04:30:00, 0.4,23.9
2023/08/06 04:40:00, 0.0,23.9
2023/08/06 04:50:00, 0.0,24.0
2023/08/06 05:00:00, 0.0,23.9
2023/08/06 05:10:00,---,23.7
2023/08/06 05:20:00,---,23.7
2023/08/06 05:30:00, 0.0,23.7
2023/08/06 05:40:00, 0.0,23.6
2023/08/06 05:50:00, 0.3,23.8
2023/08/06 06:00:00, 0.0,23.8
2023/08/06 06:10:00, 0.3,23.8
2023/08/06 06:20:00,---,23.9
2023/08/06 06:30:00, 0.3,24.0
2023/08/06 06:40:00,---,24.1
2023/08/06 06:50:00, 0.3,24.2
2023/08/06 07:00:00,---,24.2
2023/08/06 07:10:00,---,24.5
2023/08/06 07:20:00,---,25.1
2023/08/06 07:30:00, 0.0,25.5
2023/08/06 07:40:00, 0.0,26.1
2023/08/06 07:50:00, 0.0,25.6
2023/08/06 08:00:00, 0.0,26.1
2023/08/06 08:10:00, 0.0,26.6
2023/08/06 08:20:00,---,26.6
2023/08/06 08:30:00,---,26.7
2023/08/06 08:40:00, 0.0,27.0
2023/08/06 08:50:00, 0.0,27.2
2023/08/06 09:00:00, 0.0,27.5
2023/08/06 09:10:00, 0.0,27.6
2023/08/06 09:20:00, 0.0,28.3
2023/08/06 09:30:00, 0.0,28.2
2023/08/06 09:40:00, 0.0,28.8
2023/08/06 09:50:00, 0.0,27.9
2023/08/06 10:00:00, 0.0,27.6
2023/08/06 10:10:00, 0.0,27.6
2023/08/06 10:20:00, 0.0,28.4
2023/08/06 10:30:00, 0.0,28.7
2023/08/06 10:40:00,---,28.7
2023/08/06 10:50:00,---,28.7
2023/08/06 11:00:00, 0.0,28.9
2023/08/06 11:10:00,---,29.3
2023/08/06 11:20:00,---,30.0
2023/08/06 11:30:00,---,29.8
2023/08/06 11:40:00,---,29.5
2023/08/06 11:50:00,---,29.6
2023/08/06 12:00:00,---,29.5
2023/08/06 12:10:00,---,29.1
2023/08/06 12:20:00,---,29.7
2023/08/06 12:30:00,---,29.7
2023/08/06 12:40:00,---,30.8
2023/08/06 12:50:00,---,30.2
2023/08/06 13:00:00,---,30.6
2023/08/06 13:10:00,---,30.3
2023/08/06 13:20:00,---,30.8
2023/08/06 13:30:00,---,30.7
2023/08/06 13:40:00,---,32.4
2023/08/06 13:50:00,---,31.6
2023/08/06 14:00:00,---,32.0
2023/08/06 14:10:00,---,32.0
2023/08/06 14:20:00,---,32.6
2023/08/06 14:30:00,---,30.7
2023/08/06 14:40:00,---,30.8
2023/08/06 14:50:00,---,31.1
2023/08/06 15:00:00,---,33.1
2023/08/06 15:10:00,---,33.7
2023/08/06 15:20:00,---,33.9
2023/08/06 15:30:00,---,35.0
2023/08/06 15:40:00,---,35.6
2023/08/06 15:50:00,---,35.1
2023/08/06 16:00:00,---,33.8
2023/08/06 16:10:00,---,33.8
2023/08/06 16:20:00,---,34.8
2023/08/06 16:30:00,---,35.2
2023/08/06 16:40:00,---,34.7
2023/08/06 16:50:00, 0.0,34.8
2023/08/06 17:00:00,---,34.1
2023/08/06 17:10:00, 0.8,33.3
2023/08/06 17:20:00,---,31.5
2023/08/06 17:30:00, 0.0,31.4
2023/08/06 17:40:00, 0.9,30.4
2023/08/06 17:50:00, 0.6,30.9
2023/08/06 18:00:00, 0.6,29.4
2023/08/06 18:10:00, 0.4,28.3
2023/08/06 18:20:00, 0.4,27.9
2023/08/06 18:30:00, 0.6,27.6
2023/08/06 18:40:00, 0.7,27.2
2023/08/06 18:50:00, 0.7,27.1
2023/08/06 19:00:00, 0.8,26.4
2023/08/06 19:10:00, 0.8,26.2
2023/08/06 19:20:00, 0.7,25.8
2023/08/06 19:30:00, 0.6,26.1
2023/08/06 19:40:00, 0.6,26.3
2023/08/06 19:50:00, 0.5,26.1
2023/08/06 20:00:00, 0.5,25.4
2023/08/06 20:10:00, 0.6,25.4
2023/08/06 20:20:00, 0.6,24.9
2023/08/06 20:30:00, 0.6,24.9
2023/08/06 20:40:00, 0.6,24.9
2023/08/06 20:50:00, 0.5,24.8
2023/08/06 21:00:00, 0.5,25.0
2023/08/06 21:10:00, 0.4,25.1
2023/08/06 21:20:00, 0.4,25.6
2023/08/06 21:30:00,---,26.2
2023/08/06 21:40:00, 0.2,26.4
2023/08/06 21:50:00, 0.3,26.1
2023/08/06 22:00:00, 0.3,25.9
2023/08/06 22:10:00, 0.4,25.6
2023/08/06 22:20:00, 0.5,25.4
2023/08/06 22:30:00, 0.4,25.3
2023/08/06 22:40:00, 0.4,25.5
2023/08/06 22:50:00, 0.4,25.3
2023/08/06 23:00:00, 0.4,25.0
2023/08/06 23:10:00, 0.4,25.0
2023/08/06 23:20:00, 0.0,24.9
2023/08/06 23:30:00,---,24.7
2023/08/06 23:40:00, 0.5,24.8
2023/08/06 23:50:00,---,24.8
